When you browse on this site, cookies collect data to enhance your experience and personalize the content and advertising you see.
Visit our Privacy Policy to learn more. By continuing to use the site, you agree to this use of cookies and data.
  • Em Portugal
  • Lista de países
  • Para 7 dias
  • Temperatura da água
  • Mapas de satélite
  • Mapa do tempo
  • Widgets de tempo
  • user-avatar
    Iniciar Sessão

    Previsão horária em Broda

    Hoje, 19 Fevereiro, Terça-feira

    Tempo Temperatura Precipitação Vento Pressão Humidade
    00:00 +3°C° 0 mm 2 m/s 748 mmHg 85%
    01:00 +3°C° 0 mm 2 m/s 748 mmHg 85%
    02:00 +3°C° 0 mm 2 m/s 748 mmHg 86%
    03:00 +2°C° 0 mm 2 m/s 747 mmHg 86%
    04:00 +2°C° 0 mm 2 m/s 746 mmHg 87%
    05:00 +1°C° 0 mm 3 m/s 746 mmHg 86%
    06:00 +1°C° 0 mm 3 m/s 746 mmHg 86%
    07:00 +1°C° 0 mm 3 m/s 745 mmHg 86%
    08:00 +1°C° 0 mm 4 m/s 745 mmHg 83%
    09:00 +4°C° 0 mm 4 m/s 745 mmHg 79%
    10:00 +5°C° 0 mm 5 m/s 745 mmHg 75%
    11:00 +6°C° 0 mm 5 m/s 745 mmHg 73%
    12:00 +7°C° 0 mm 5 m/s 745 mmHg 71%
    13:00 +8°C° 0 mm 5 m/s 745 mmHg 69%
    14:00 +7°C° 0.2 mm 5 m/s 745 mmHg 74%
    15:00 +6°C° 0.2 mm 5 m/s 745 mmHg 78%
    16:00 +6°C° 0.2 mm 4 m/s 745 mmHg 83%
    17:00 +5°C° 0.1 mm 5 m/s 745 mmHg 82%
    18:00 +5°C° 0.1 mm 5 m/s 745 mmHg 81%
    19:00 +5°C° 0.1 mm 5 m/s 745 mmHg 79%
    20:00 +5°C° 0 mm 5 m/s 745 mmHg 80%
    21:00 +5°C° 0 mm 5 m/s 745 mmHg 81%
    22:00 +3°C° 0 mm 5 m/s 745 mmHg 81%
    23:00 +3°C° 0.1 mm 5 m/s 745 mmHg 81%

    Amanhã, 20 Fevereiro, Quarta-feira

    Tempo Temperatura Precipitação Vento Pressão Humidade
    00:00 +3°C° 0.1 mm 5 m/s 745 mmHg 81%
    01:00 +3°C° 0.1 mm 5 m/s 745 mmHg 80%
    02:00 +3°C° 0.1 mm 6 m/s 745 mmHg 80%
    03:00 +3°C° 0.1 mm 6 m/s 745 mmHg 80%
    04:00 +3°C° 0.1 mm 6 m/s 745 mmHg 79%
    05:00 +2°C° 0.1 mm 6 m/s 745 mmHg 79%
    06:00 +2°C° 0.1 mm 6 m/s 746 mmHg 78%
    07:00 +2°C° 0.1 mm 6 m/s 746 mmHg 77%
    08:00 +2°C° 0.1 mm 6 m/s 746 mmHg 77%
    09:00 +2°C° 0.1 mm 6 m/s 747 mmHg 76%
    10:00 +2°C° 0.1 mm 6 m/s 747 mmHg 76%
    11:00 +3°C° 0 mm 6 m/s 748 mmHg 75%
    12:00 +3°C° 0 mm 6 m/s 748 mmHg 74%
    13:00 +3°C° 0 mm 6 m/s 749 mmHg 73%
    14:00 +3°C° 0 mm 6 m/s 749 mmHg 73%
    15:00 +3°C° 0 mm 6 m/s 749 mmHg 72%
    16:00 +3°C° 0 mm 5 m/s 750 mmHg 72%
    17:00 +3°C° 0 mm 5 m/s 750 mmHg 75%
    18:00 +3°C° 0 mm 4 m/s 750 mmHg 79%
    19:00 +3°C° 0 mm 4 m/s 751 mmHg 82%
    20:00 +3°C° 0 mm 3 m/s 751 mmHg 86%
    21:00 +2°C° 0 mm 3 m/s 751 mmHg 89%
    22:00 +3°C° 0 mm 2 m/s 751 mmHg 93%
    23:00 +3°C° 0.2 mm 2 m/s 751 mmHg 94%

    Depois de amanhã, 21 Fevereiro, Quinta-feira

    Tempo Temperatura Precipitação Vento Pressão Humidade
    00:00 +3°C° 0.2 mm 2 m/s 751 mmHg 95%
    01:00 +3°C° 0.2 mm 2 m/s 751 mmHg 96%
    02:00 +4°C° 0.3 mm 2 m/s 751 mmHg 95%
    03:00 +4°C° 0.3 mm 2 m/s 750 mmHg 95%
    04:00 +3°C° 0.3 mm 3 m/s 750 mmHg 95%
    05:00 +3°C° 0.2 mm 3 m/s 750 mmHg 95%
    06:00 +4°C° 0.2 mm 3 m/s 750 mmHg 94%
    07:00 +4°C° 0.2 mm 3 m/s 750 mmHg 93%
    08:00 +4°C° 0.3 mm 3 m/s 750 mmHg 93%
    09:00 +4°C° 0.3 mm 4 m/s 750 mmHg 92%
    10:00 +4°C° 0.3 mm 4 m/s 750 mmHg 92%
    11:00 +5°C° 0.4 mm 4 m/s 750 mmHg 91%
    12:00 +5°C° 0.4 mm 4 m/s 750 mmHg 89%
    13:00 +5°C° 0.4 mm 4 m/s 750 mmHg 88%
    14:00 +5°C° 0.1 mm 4 m/s 750 mmHg 88%
    15:00 +5°C° 0.1 mm 4 m/s 750 mmHg 89%
    16:00 +5°C° 0.1 mm 4 m/s 750 mmHg 89%
    17:00 +5°C° 0.1 mm 3 m/s 750 mmHg 90%
    18:00 +5°C° 0.1 mm 3 m/s 751 mmHg 92%
    19:00 +5°C° 0.1 mm 3 m/s 751 mmHg 93%
    20:00 +4°C° 0.1 mm 3 m/s 752 mmHg 92%
    21:00 +3°C° 0.1 mm 4 m/s 752 mmHg 91%
    22:00 +1°C° 0.1 mm 4 m/s 753 mmHg 89%
    23:00 0°C° 0.3 mm 4 m/s 754 mmHg 87%

    22 Fevereiro, Sexta-feira

    Tempo Temperatura Precipitação Vento Pressão Humidade
    00:00 -1°C° 0.3 mm 4 m/s 755 mmHg 86%
    01:00 -1°C° 0.3 mm 4 m/s 755 mmHg 84%
    02:00 -2°C° 0 mm 4 m/s 756 mmHg 82%
    03:00 -2°C° 0 mm 4 m/s 757 mmHg 80%
    04:00 -2°C° 0 mm 4 m/s 758 mmHg 78%
    05:00 -2°C° 0 mm 4 m/s 759 mmHg 76%
    06:00 -3°C° 0 mm 4 m/s 760 mmHg 74%
    07:00 -3°C° 0 mm 4 m/s 761 mmHg 72%
    08:00 -3°C° 0 mm 4 m/s 762 mmHg 69%
    09:00 -2°C° 0 mm 4 m/s 763 mmHg 65%
    10:00 -2°C° 0 mm 4 m/s 764 mmHg 62%
    11:00 -2°C° 0 mm 4 m/s 765 mmHg 58%
    12:00 -2°C° 0 mm 4 m/s 765 mmHg 53%
    13:00 -1°C° 0 mm 4 m/s 766 mmHg 49%
    14:00 -1°C° 0 mm 3 m/s 766 mmHg 48%
    15:00 -1°C° 0 mm 3 m/s 767 mmHg 48%
    16:00 -1°C° 0 mm 2 m/s 767 mmHg 48%
    17:00 -2°C° 0 mm 2 m/s 767 mmHg 52%
    18:00 -3°C° 0 mm 2 m/s 768 mmHg 55%
    19:00 -1°C° 0 mm 1 m/s 768 mmHg 59%
    20:00 -1°C° 0 mm 1 m/s 768 mmHg 59%
    21:00 -2°C° 0 mm 1 m/s 768 mmHg 58%
    22:00 -2°C° 0 mm 1 m/s 768 mmHg 57%
    23:00 -1°C° 0 mm 1 m/s 768 mmHg 56%

    23 Fevereiro, Sábado

    Tempo Temperatura Precipitação Vento Pressão Humidade
    00:00 -1°C° 0 mm 1 m/s 768 mmHg 54%
    01:00 -1°C° 0 mm 1 m/s 768 mmHg 53%
    02:00 -3°C° 0 mm 2 m/s 768 mmHg 52%
    03:00 -3°C° 0 mm 2 m/s 768 mmHg 51%
    04:00 -3°C° 0 mm 2 m/s 767 mmHg 50%
    05:00 -2°C° 0 mm 2 m/s 767 mmHg 50%
    06:00 -2°C° 0 mm 2 m/s 767 mmHg 50%
    07:00 -2°C° 0 mm 2 m/s 767 mmHg 50%
    08:00 -1°C° 0 mm 3 m/s 767 mmHg 48%
    09:00 -1°C° 0 mm 3 m/s 767 mmHg 46%
    10:00 0°C° 0 mm 3 m/s 767 mmHg 44%
    11:00 +1°C° 0 mm 3 m/s 766 mmHg 45%
    12:00 +1°C° 0 mm 3 m/s 766 mmHg 46%
    13:00 +2°C° 0 mm 3 m/s 766 mmHg 47%
    14:00 +2°C° 0 mm 3 m/s 765 mmHg 52%
    15:00 +2°C° 0 mm 3 m/s 765 mmHg 57%
    16:00 +2°C° 0 mm 3 m/s 764 mmHg 63%
    17:00 +1°C° 0 mm 3 m/s 764 mmHg 70%
    18:00 +1°C° 0 mm 2 m/s 764 mmHg 78%
    19:00 -1°C° 0 mm 2 m/s 764 mmHg 85%
    20:00 -1°C° 0 mm 2 m/s 764 mmHg 89%
    21:00 -1°C° 0 mm 2 m/s 764 mmHg 92%
    22:00 -1°C° 0 mm 2 m/s 764 mmHg 95%
    23:00 +1°C° 0 mm 2 m/s 764 mmHg 96%

    24 Fevereiro, Domingo

    Tempo Temperatura Precipitação Vento Pressão Humidade
    00:00 +1°C° 0 mm 2 m/s 764 mmHg 96%
    01:00 +1°C° 0 mm 2 m/s 764 mmHg 97%
    02:00 +2°C° 0 mm 1 m/s 764 mmHg 97%
    03:00 +2°C° 0 mm 1 m/s 764 mmHg 97%
    04:00 +2°C° 0 mm 1 m/s 764 mmHg 97%
    05:00 +2°C° 0 mm 1 m/s 764 mmHg 97%
    06:00 +2°C° 0 mm 1 m/s 764 mmHg 97%
    07:00 +3°C° 0 mm 1 m/s 764 mmHg 98%
    08:00 +3°C° 0 mm 1 m/s 764 mmHg 95%
    09:00 +4°C° 0 mm 1 m/s 764 mmHg 93%
    10:00 +4°C° 0 mm 2 m/s 764 mmHg 91%
    11:00 +4°C° 0 mm 2 m/s 764 mmHg 90%
    12:00 +4°C° 0 mm 2 m/s 764 mmHg 89%
    13:00 +5°C° 0 mm 2 m/s 764 mmHg 88%
    14:00 +5°C° 0 mm 2 m/s 764 mmHg 89%
    15:00 +5°C° 0 mm 2 m/s 763 mmHg 91%
    16:00 +4°C° 0 mm 2 m/s 763 mmHg 92%
    17:00 +4°C° 0 mm 2 m/s 763 mmHg 93%
    18:00 +4°C° 0 mm 2 m/s 763 mmHg 94%
    19:00 +3°C° 0 mm 3 m/s 762 mmHg 95%
    20:00 +3°C° 0 mm 3 m/s 762 mmHg 95%
    21:00 +2°C° 0 mm 3 m/s 762 mmHg 95%
    22:00 +2°C° 0 mm 3 m/s 761 mmHg 94%
    23:00 +2°C° 0 mm 3 m/s 761 mmHg 94%
    Mostrar mais